Location: Obersdorf
(47.4079°N, 10.2781°E)
Time: 05:37:34
(UTC+02:00)

COSMOS 2251 DEB - Pass Details

Date: 06 July 2022
Orbit: 490 x 570 km, 73.9° (Epoch: 06 August)

Event Time Altitude Azimuth Distance (km) Brightness Sun altitude
Exits shadow 03:37:22 - 156° (SSE) 2,103 ? -13.7°
Reaches altitude 10° 03:38:10 10° 150° (SSE) 1,846 ? -13.6°
Maximum altitude 03:41:16 21° 101° (E) 1,281 ? -13.4°
Drops below altitude 10° 03:44:19 10° 52° (NE) 1,824 ? -13.1°
Sets 03:46:52 0° 36° (NE) 2,705 ? -12.8°
